Location: Dappach
(48.9767°N, 9.6998°E)
Time: 21:36:04
(UTC+00:00)

COSMOS 2428 - Pass Details

Date: 22 August 2024
Orbit: 842 x 857 km, 70.9° (Epoch: 09 September)

Event Time Altitude Azimuth Distance (km) Brightness Sun altitude
Exits shadow 01:26:49 11° 286° (WNW) 2,378 4.9 -23.6°
Maximum altitude 01:30:09 18° 324° (NW) 1,985 4.8 -23.3°
Drops below altitude 10° 01:33:59 10° 6° (N) 2,496 6.0 -22.9°
Sets 01:37:19 0° 25° (NNE) 3,438 7.3 -22.6°
